Regional Weather Roundup
Issued by NWS

Home | Current Version | Previous Version | Text Only | Print | Product List | Glossary On
Versions: 1 2 3 4 5 6 7 8 9 10 11 12 13 14 15 16 17 18 19 20 21 22 23 24 25 26 27 28 29 30 31 32 33 34 35 36 37 38 39 40 41 42 43 44 45 46 47 48 49 50
000
ASUS43 KIND 250309
RWRIN

WEATHER ROUNDUP FOR INDIANA
NATIONAL WEATHER SERVICE INDIANAPOLIS IN
1100 PM EDT MON APR 24 2017

NOTE: "FAIR" INDICATES FEW OR NO CLOUDS BELOW 12,000 FEET WITH NO
SIGNIFICANT WEATHER AND/OR OBSTRUCTIONS TO VISIBILITY.

* - STATION DOES NOT REPORT WEATHER SUCH AS PRECIPITATION OR FOG.

+ - STATION NOT QUALITY CONTROLLED BY THE NATIONAL WEATHER SERVICE.
    USE DATA WITH CAUTION...ESPECIALLY DEWPOINT AND RELATIVE
    HUMIDITY OBSERVATIONS.

INZ001>003-010>013-019-020-250400-
NORTHWEST INDIANA

CITY           SKY/WX    TMP DP  RH WIND       PRES   REMARKS
GARY /AIRPORT/ PTCLDY    63  32  31 E9        29.78S
KNOX *+        CLOUDY    57  12  17 E8        29.79F
LA PORTE +     CLOUDY    59  37  43 E9        29.80F
MICHIGAN CITY+ CLEAR     61  34  36 SE7       29.80S
MONTICELLO +   CLEAR     62  39  42 E5        29.77F
RENSSELAER +   CLEAR     61  36  39 E12       29.78S
VALPARAISO     CLEAR     58  38  47 E8        29.79F

$$

LMZ046-743>745-250400-
SOUTHERN LAKE MICHIGAN

STATION/POSITION TIME  TEMP    WIND        PRES    WAVE
                       AIR SEA DIR/SP/G            HT
                 (UTC) (F)     (DEG/KT/KT) (MB)    (FT)
BURNS HARBOR     0240   65     110/ 13/ 17 1008.8F
MICHIGAN CITY    0240   64     100/ 11/ 14   N/A

$$

INZ004-005-014>016-021>024-250400-
NORTH CENTRAL INDIANA

CITY           SKY/WX    TMP DP  RH WIND       PRES   REMARKS
GOSHEN         CLOUDY    55  36  48 E10       29.83F
LOGANSPORT +   CLEAR     61  39  44 E10       29.81R
PERU/GRISSOM   CLEAR     61  40  44 E13       29.78S
ROCHESTER +    CLEAR     59  37  44 E8        29.82S
SOUTH BEND     CLOUDY    60  33  36 SE16      29.82F
WARSAW +       CLEAR     54  37  54 E7        29.83S

$$

INZ006>009-017-018-025>027-250400-
NORTHEAST INDIANA

CITY           SKY/WX    TMP DP  RH WIND       PRES   REMARKS
ANGOLA *+      CLEAR     55  37  50 E10       29.85S
AUBURN +       CLEAR     55  36  47 E7        29.85R
FORT WAYNE     PTCLDY    56  39  53 E13       29.83S
HUNTINGTON +   CLEAR     57  38  50 E6        29.83R
KENDALLVILLE + CLEAR     55  37  49 E8        29.85S

$$

INZ028-029-035-036-043>045-051>053-250400-
WEST CENTRAL INDIANA

CITY           SKY/WX    TMP DP  RH WIND       PRES   REMARKS
CRAWFORDSVL +  PTCLDY    55  44  66 E5        29.76S
GREENCASTLE +  CLEAR     59  46  63 E5        29.77S
LAFAYETTE      CLEAR     60  41  49 E10       29.76F
TERRE HAUTE    PTCLDY    58  46  64 CALM      29.75S

$$

INZ030>032-037>040-046>048-054>057-064-065-250400-
CENTRAL INDIANA

CITY           SKY/WX    TMP DP  RH WIND       PRES   REMARKS
CP ATTERBURY + CLEAR     63  52  67 SE8       29.79S
FISHERS *+     CLEAR     63  54  72 SE7       29.79R
FRANKFORT +    CLEAR     64  41  43 E9        29.80S
GREENWOOD *+   CLEAR     64  50  60 SE9       29.79S
INDIANAPOLIS   PTCLDY    65  51  60 SE14      29.77R
-EAGLE CREEK   CLEAR     67  51  56 SE9       29.77R
KOKOMO +       CLEAR     59  42  53 E12       29.80S
MARION +       CLEAR     59  43  55 E5        29.82R
MT COMFORT *+  CLEAR     63  50  63 SE9       29.79S
SHELBYVILLE    CLEAR     65  50  58 SE10      29.79S
ZIONSVILLE +   CLEAR     64  51  62 SE7       29.79S

$$

INZ033-034-041-042-049-050-058-059-250400-
EAST CENTRAL INDIANA

CITY           SKY/WX    TMP DP  RH WIND       PRES   REMARKS
MUNCIE         CLEAR     64  51  62 SE13      29.80S
RICHMOND +     CLEAR     55  50  82 E12       29.84S

$$

INZ060-061-067>069-081>083-085>088-250400-
SOUTHWEST INDIANA

CITY           SKY/WX    TMP DP  RH WIND       PRES   REMARKS
EVANSVILLE     CLEAR     61  51  70 CALM      29.75R
HUNTINGBURG *+ CLEAR     61  52  72 SE7       29.76R
WASHINGTON +   CLEAR     60  47  63 MISG      29.75R

$$

INZ062-063-066-070>080-084-089>092-250400-
SOUTH CENTRAL AND SOUTHEAST INDIANA

CITY           SKY/WX    TMP DP  RH WIND       PRES   REMARKS
BEDFORD +      CLOUDY   N/A N/A N/A E6        29.76
BLOOMINGTON    CLOUDY    69  50  50 SE8       29.76S
MADISON *+     CLOUDY    63  50  63 E7        29.82S
NORTH VERNON + PTCLDY    63  52  67 E5        29.80F
SEYMOUR +      CLEAR     64  52  63 E8        29.78S

$$





USA.gov is the U.S. government's official web portal to all federal, state and local government web resources and services.